Regional Weather Roundup
Issued by NWS Grand Forks, ND

Home | Current Version | Previous Version | Graphics & Text | Print | Product List | Glossary On
Versions: 1 2 3 4 5 6 7 8 9 10 11 12 13 14 15 16 17 18 19 20 21 22 23 24 25 26 27 28 29 30 31 32 33 34 35 36 37 38 39 40 41 42 43 44 45 46 47 48 49 50
000
ASUS43 KFGF 061331
RWRFGF
PRAIRIE TO PINES  WEATHER ROUNDUP
NATIONAL WEATHER SERVICE EASTERN NORTH DAKOTA/GRAND FORKS ND
700 AM CST FRI MAR 06 2015

 **SATELLITE DATA USED TO AUGMENT SKY COVER AT AUTOMATED STATIONS**
 *****  WEATHER ACROSS EASTERN NORTH DAKOTA  *****

CITY           SKY/WX    TMP DP  RH WIND       PRES   REMARKS
GRAND FORKS    CLEAR      9   4  80 W9        30.03R WCI  -4
GRAND FRKS AFB CLEAR     11   6  77 NW7       30.03R WCI   1
GRAND FRKS NWS   N/A     10 N/A N/A W7          N/A  WCI   0
DEVILS LAKE    PTCLDY    10   3  72 W12       30.03S WCI  -4
FARGO          CLEAR     14   8  77 NW8       30.04R WCI   3
WAHPETON ARPT  SUNNY     10   5  79 W8        30.06R WCI  -1
$$

 ***** WEATHER ACROSS CENTRAL AND WESTERN NORTH DAKOTA  *****

CITY           SKY/WX    TMP DP  RH WIND       PRES   REMARKS
BISMARCK       CLEAR     13  10  88 NW3       30.09R
MINOT          PTCLDY    16  10  77 SW10      30.05R WCI   4
JAMESTOWN      CLEAR     14   9  80 NW7       30.03R WCI   4
MINOT AFB      PTCLDY    14  11  91 W10       30.04R WCI   1
GARRISON         N/A     16  11  80 VRB3      30.05S
WILLISTON      PTCLDY    17  13  84 S3        30.07R
DICKINSON      CLEAR     20  13  74 W7        30.04R WCI  11
HETTINGER      CLEAR     19  11  70 CALM      30.08R
$$

 *****  OTHER AIRPORT OBSERVATIONS IN OUR AREA  *****

CITY           SKY/WX    TMP DP  RH WIND       PRES   REMARKS
WALHALLA         N/A     16   9  73 W9        30.02R WCI   4
GRAFTON AIRPOR NOT AVBL
VALLEY CITY AR FAIR      14  12  92 NW14      30.04R WCI  -1
CANDO          FAIR       5   1  85 NW7       30.04R WCI  -7
CAVALIER APRT  FAIR      14   7  73 W9        30.02R WCI   2
GWINNER        SUNNY     18  12  79 W8        30.06R WCI   7
SHEYENNE NWR     N/A     11   6  81 NW3       29.95S
ROLLA          FAIR      14   9  79 W9        30.01R WCI   2
 ***** THE ABOVE OBSERVATIONS ARE NON NWS ARE NOT QUALITY
       CONTROLLED AND MAY MIS-REPORT RAIN FOR SNOW...
$$

  *****  WEATHER ACROSS NORTHERN MINNESOTA  *****

CITY           SKY/WX    TMP DP  RH WIND       PRES   REMARKS
FLAG ISLAND    CLEAR     10   5  79 W9        29.91R WCI  -2
WARROAD        CLEAR      9   3  78 W7        29.94S WCI  -3
ROSEAU         CLEAR     12   7  79 W7        29.96R WCI   2
HALLOCK        PTCLDY     5   1  85 W5        30.00R WCI  -4
THF RVR FALLS  MOCLDY     9   5  85 W3        30.00R
BAUDETTE       CLEAR     11   4  73 W7        29.90R WCI   0
WASKISH        CLEAR      9   7  92 SW7       29.94S WCI  -3
CROOKSTON      FAIR       9   5  85 NW3       30.04R
STEPHEN NDAWN    N/A      9   3  78 W5          N/A  WCI   0
GREENBUSH NDAW   N/A      5   1  85 W7          N/A  WCI  -7
$$
  *****  WEATHER ACROSS CENTRAL AND WEST MINNESOTA  *****

CITY           SKY/WX    TMP DP  RH WIND       PRES   REMARKS
FOSSTON        PTCLDY     0  -4  85 CALM      30.00R
BEMIDJI        CLEAR      8   4  85 W6        29.95R WCI  -2
PARK RAPIDS    CLEAR      4   0  83 W5        29.95R WCI  -5
ELBOW LAKE     FAIR      12   6  79 W8        30.01S WCI   0
WADENA         CLEAR     12   7  79 W10       29.97R WCI  -1
DETROIT LAKES  CLEAR     14  10  85 NW8       30.00R WCI   3
MOORHEAD       CLEAR     12  10  92 NW5       30.05R WCI   4
FERGUS FALLS   CLEAR      9   3  78 W6        30.06R WCI  -1
MORRIS MN      CLEAR     12   7  79 W9        30.02S WCI   0
STAPLES        CLEAR      9   3  78 W5        29.97S WCI   0
$$
  *****  WEATHER ELSEWHERE ACROSS MINNESOTA  *****

CITY           SKY/WX    TMP DP  RH WIND       PRES   REMARKS
DULUTH         PTCLDY    10   2  69 W15       29.93S WCI  -7
INTRNTL FALLS  CLEAR     11   4  73 W8        29.88R WCI  -1
ELY            PTCLDY     9   1  72 SW7       29.89S WCI  -3
CLOQUET        CLOUDY    10   1  67 SW7       29.96S WCI   0
WHEATON        CLEAR     18  10  73 W9        30.06S WCI   6
BRAINERD       CLEAR      9   3  77 SW7       29.98R WCI  -2
HIBBING        FAIR      10   2  69 SW5       29.92F WCI   2
ALEXANDRIA     CLEAR     12   6  77 SW9       29.99S WCI   0
SAINT CLOUD    CLOUDY    13   6  74 S8        30.02F WCI   2
MINNEAPOLIS    MOCLDY    14   4  64 S7        30.08F WCI   4
$$

  *****  WEATHER ACROSS SOUTH DAKOTA  *****

CITY           SKY/WX    TMP DP  RH WIND       PRES   REMARKS
SIOUX FALLS    PTCLDY    17   9  70 W3        30.09R
BROOKINGS      NOT AVBL
WATERTOWN      CLEAR      8   2  76 S5        30.03S WCI   0
HURON          CLOUDY    19  13  77 NE3       30.07S
SISSETON       NOT AVBL
ABERDEEN       CLEAR     13   7  77 CALM      30.07R
MITCHELL       CLOUDY    29  19  66 SW7       30.10S WCI  22
PIERRE         PTCLDY    25  17  72 W10       30.09S WCI  15
MOBRIDGE       CLEAR     15   9  76 CALM      30.06R
RAPID CITY     CLEAR     27  15  61 W6        30.12R WCI  20
$$

  *****  SOME WEATHER IN NEARBY STATES *****

CITY           SKY/WX    TMP DP  RH WIND       PRES   REMARKS
GLASGOW MT     CLOUDY    26  20  77 CALM      30.04S
GREAT FALLS MT CLEAR     34  18  52 SW14      30.14R WCI  25
CHEYENNE WY    PTCLDY    32  12  43 NW9       30.23R WCI  24
SCOTTSBLUFF NE CLEAR     25  19  78 N5        30.22R WCI  19
OMAHA NE       PTCLDY    20  14  77 S9        30.20S WCI   9
DES MOINES IA  PTCLDY    22  12  65 S12       30.20F WCI  10
DAVENPORT IA   CLEAR      9   0  67 S17       30.34F WCI  -9
CHICAGO IL     MOCLDY     6  -1  73 SW12      30.42F WCI  -9
EAU CLAIRE WI  CLEAR      6  -3  66 S7        30.12F WCI  -6
LA CROSSE WI   MOCLDY     8  -1  66 S9        30.21F WCI  -5
$$

  *****  SOME NATIONAL WEATHER *****

CITY           SKY/WX    TMP DP  RH WIND       PRES   REMARKS
LA GUARDIA NY  MOSUNNY   15   2  56 N9        30.54R WCI   3
RALEIGH NC     MOSUNNY   24  13  62 NE12      30.50R WCI  13
ATLANTA GA     CLOUDY    28  24  85 N7        30.39R FOG     WCI  21
NEW ORLEANS LA PTCLDY    32  22  66 N15       30.48R WCI  22
OKLAHOMA CITY  CLEAR     23  16  74 S3        30.46S
ALBUQUERQUE NM CLEAR     32  14  47 N6        30.38R
SALT LAKE CITY PTCLDY    31  23  72 SE7       30.42S WCI  24
LOS ANGELES CA CLEAR     52  26  36 CALM      30.13S
BOISE ID       CLEAR     32  19  58 CALM      30.40R
SEATTLE WA     MOCLDY    41  35  79 CALM      30.39R
$$

*** WEATHER ACROSS MANITOBA...SASKATCHEWAN AND ONTARIO ***
                ***ONTARIO***

CITY           SKY/WX    TMP DP  RH WIND       PRES   REMARKS
GERALDTON      FLURRIES   9  -2  61 SW15G22   29.78F WCI  -8
THUNDER BAY    CLOUDY     0  -8  71 W2        29.92F
SIOUX LOOKOUT  PTCLDY     9   3  78 W8        29.78R WCI  -4
TORONTO        MOSUNNY    7  -2  66 SW12      30.48R WCI  -9
BIG TROUT LK   LGT SNOW   9   5  85 NW15      29.63R WCI  -8
PICKLE LAKE    FLURRIES  10   3  72 W13G18    29.67S WCI  -5
DRYDEN         CLEAR      9   5  85 W13       29.80R WCI  -7
KENORA         CLEAR      9   1  72 W9        29.86R WCI  -5
$$
                *** MANITOBA***

CITY           SKY/WX    TMP DP  RH WIND       PRES   REMARKS
BRANDON        CLEAR      3   0  85 NW12      30.00F WCI -13
DAUPHIN        NOT AVBL
ISLAND LAKE    PTCLDY     0  -6  78 W8        29.77R WCI -15
PILOT MOUND      N/A      9   7  92 W5          N/A  WCI   0
THE PAS        FLURRIES  12   9  85 SE3       29.82F
THOMPSON       MOCLDY    -4  -9  77 W3        29.81R
WINNIPEG       CLEAR      5   0  78 W10       29.98S WCI -10
LYNN LAKE      LGT SNOW   3   1  92 W2        29.76F
CHURCHILL      CRYSTALS -17 -22  76 NW9       29.79R WCI -36
GILLAM         CLEAR     -8 -15  71 NW10      29.77R WCI -26
$$
                ***SASKATCHEWAN***

CITY           SKY/WX    TMP DP  RH WIND       PRES   REMARKS
ESTEVAN        CLOUDY    10   7  85 S6        30.03S WCI   1
KINDERSLEY     CLOUDY    28  23  80 SW8       29.91R WCI  20
LLOYDMINSTER   LGT RAIN  34  30  86 W13       29.82S WCI  25
PRINCE ALBERT  MOCLDY    21  18  86 SW8       29.80F WCI  12
REGINA         CLOUDY    10   7  85 SE8       29.97F WCI  -1
YORKTON        CLOUDY    21  12  68 SW17      29.91F WCI   7
N. BATTLEFORD  FLURRIES  30  25  80 W5        29.85F
LA RONGE       PTCLDY    14  12  92 SW2       29.72F
SASKATOON      CLOUDY    21  18  86 SW3       29.88F
SWIFT CURRENT  CLOUDY    30  23  74 SW16G22   29.92F WCI  19
$$
NOTE: THESE ARE AUTOMATED STATIONS WITH LIMITED QUALITY CONTROL
      "FAIR" INDICATES FEW OR NO CLOUDS BELOW 12,000 FEET WITH NO
      SIGNIFICANT WEATHER AND/OR OBSTRUCTIONS TO VISIBILITY.
      SKY/WX - SKY CONDITION AND SIGNIFICANT WEATHER.
      TMP - AIR TEMPERATURE.    DP   - DEWPOINT TEMPERATURE.
      RH  - RELATIVE HUMIDITY.  PRES - PRESSURE.
      HX  - HEAT INDEX.         WCI  - WIND CHILL INDEX.
$


USA.gov is the U.S. government's official web portal to all federal, state and local government web resources and services.